カタログに戻る

TITAN 3C TRANSTAGE DEB

運用中HEO
NORAD 35503·DEBRIS·🇺🇸 United States

打ち上げ Dec 21, 1965 から Cape Canaveral Space Force Station

Loading…

次のパス (今後24時間)

TLE

経年Source: Space-Track

元期: Sep 5, 2026, 08:19 UTC

1 35503U 65108DJ  26248.34718711 -.00000118  00000-0 -46175-2 0  9997
2 35503  26.4127 267.1733 6791139 159.5595 353.5645  2.60397835209313

AllMySatでTITAN 3C TRANSTAGE DEBをリアルタイム追跡

Download on the App Store